Location: Anumalkud?ru
(16.4847°N, 80.6636°E)
Time: 15:38:47
(UTC+00:00)

USA 234 - Pass Details

Date: 11 April 2026
Orbit: 1102 x 1106 km, 123.0° (Epoch: 4 January)

Event Time Altitude Azimuth Distance (km) Brightness Sun altitude
Rises 22:31:49 0° 145° (SE) 3,906 6.3 -27.0°
Reaches altitude 10° 22:34:17 10° 146° (SE) 2,949 5.7 -26.5°
Maximum altitude 22:40:48 81° 233° (SW) 1,115 3.1 -25.0°
Drops below altitude 10° 22:47:20 10° 320° (NW) 2,952 5.3 -23.5°
Sets 22:49:49 0° 321° (NW) 3,911 5.9 -22.9°
